Location: ????????
(48.4751°N, 37.6926°E)
Time: 13:13:18
(UTC+00:00)

Cosmos 2180 Rocket - Pass Details

Date: 20 January 2021
Orbit: 954 x 1004 km, 82.9° (Epoch: 26 February)

Event Time Altitude Azimuth Distance (km) Brightness Sun altitude
Rises 15:20:06 0° 351° (N) 3,730 7.5 -11.6°
Reaches altitude 10° 15:22:39 10° 353° (N) 2,781 6.8 -12.0°
Maximum altitude 15:29:03 77° 80° (E) 1,034 4.5 -13.0°
Drops below altitude 10° 15:35:27 10° 167° (SSE) 2,772 6.9 -14.0°
Sets 15:37:58 0° 168° (SSE) 3,716 7.6 -14.4°
